Starlink 4386

operational
NORAD ID: 53649 Int'l Des: 2022-105 Owner: SPXS Country: US Constellation: starlink
LEOCIRCULARRETROGRADESSO

Starlink 4386について

説明を読み込み中...

リアルタイム位置

3D地球を読み込み中...

次回通過

高度履歴

Altitude vs Time

uPlot chart will show altitude changes over time

軌道要素

1 53649U 22105B 26035.68120674 -.00001958 00000-0 -13161-3 0 9997
2 53649 97.5975 278.7349 0002995 80.0680 280.0885 15.05628747188337
Epoch: Feb 4, 2026 • Age: 15 hours

現在のステータス

高度 554.7 km
速度 7.59 km/s
衛星直下点 41.69°N, 139.04°W
打ち上げ日 Aug 31, 2022
運用期間 3.4 years
タイプ internet

技術仕様

分類 Payload
質量 300.00 kg
乾燥質量 290.00 kg
総質量 300.00 kg
長さ 0.20 m
直径 2.80 m
スパン 9.00 m
形状 Box + pan
製造者 SPXS
バスタイプ Starlink
フェーズステータス In Orbit
所有者/国 SPXS/US

大規模コンステレーション

Loading constellations...